Regional Weather Roundup
Issued by NWS

Home | Current Version | Previous Version | Text Only | Print | Product List | Glossary Off
Versions: 1 2 3 4 5 6 7 8 9 10 11 12 13 14 15 16 17 18 19 20 21 22 23 24 25 26 27 28 29 30 31 32 33 34 35 36 37 38 39 40 41 42 43 44 45 46 47 48 49 50

787
ASUS45 KBOI 232310
RWRID

IDAHO REGIONAL WEATHER ROUNDUP
NATIONAL WEATHER SERVICE BOISE ID
400 PM MST THU FEB 23 2017

NOTE: "FAIR" INDICATES FEW OR NO CLOUDS BELOW 12000 FEET
WITH NO SIGNIFICANT WEATHER AND/OR OBSTRUCTIONS TO VISIBILITY

IDZ012-014-240000-
SOUTHWEST IDAHO


CITY           SKY/WX    TMP DP  RH WIND       PRES   REMARKS
BOISE          CLOUDY    33  25  72 W26G33    29.92R WCI  20
CALDWELL       CLOUDY    36  23  59 W21       29.97R WCI  25
MOUNTAIN HOME  PTSUNNY   35  25  68 NW31G39   29.90R WCI  21
$$

IDZ016-017-240000-
SOUTHCENTRAL IDAHO


CITY           SKY/WX    TMP DP  RH WIND       PRES   REMARKS
BURLEY         LGT SNOW  28  23  81 SW18G26   29.83R VSB 1   WCI  15
JEROME           N/A    N/A N/A N/A MISG      29.83R
TWIN FALLS     LGT SNOW  26  22  84 W25       29.85S VSB 1   WCI  11
$$

IDZ019>023-240000-
SOUTHEAST IDAHO


CITY           SKY/WX    TMP DP  RH WIND       PRES   REMARKS
IDAHO FALLS    LGT SNOW  26  24  92 S16       29.75R VSB 1   WCI  14
POCATELLO      SNOW      26  24  92 SW22      29.79R VSB 1/2 WCI  12
REXBURG        LGT SNOW  26  25  96 SW10      29.73S FOG     WCI  16
$$

IDZ006-010-011-018-031-032-240000-
CENTRAL IDAHO MOUNTAINS


CITY           SKY/WX    TMP DP  RH WIND       PRES   REMARKS
MCCALL         CLOUDY    26  12  55 N13       29.83R WCI  15
HAILEY         LGT SNOW  28  25  86 SE10      29.74R WCI  19
STANLEY          N/A     23  19  85 N6        29.71R WCI  16
SALMON         CLOUDY    34  19  55 N7        29.80R WCI  28
CHALLIS        LGT SNOW  27  25  92 N6        29.76R FOG     WCI  20
$$

IDZ002-004-006-007-026-240000-
NORTHERN IDAHO


CITY           SKY/WX    TMP DP  RH WIND       PRES   REMARKS
LEWISTON       FAIR      41  24  51 W12G22    30.09R
LOWELL           N/A     36  32  85 CALM      30.07R
COEUR D`ALENE  FAIR      34  28  79 SW8       30.05R WCI  27
MULLAN PASS    FAIR      22  18  85 VRB3      29.85S
$$




USA.gov is the U.S. government's official web portal to all federal, state and local government web resources and services.